GW5434 Weather Reports


time (UTC)temp
C
wind
direction
speed
KPH
gust
KPH
rain 1hr
cm
rain 24hr
cm
rain mn
cm
humidity
%
barometer
mb
20260503231504 25 264 1.6 3.2 0.00 0.00 0.00 36 1018.3
20260503230003 25 298 1.6 8.0 0.00 0.00 0.00 36 1018.3
20260503224503 25 236 6.4 12.9 0.00 0.00 0.00 37 1018.4
20260503223005 25 201 0.0 4.8 0.00 0.00 0.00 35 1018.3
20260503221503 24 314 3.2 9.7 0.00 0.00 0.00 35 1018.4
20260503220004 25 286 3.2 9.7 0.00 0.00 0.00 35 1018.6
20260503214507 24 296 6.4 12.9 0.00 0.00 0.00 35 1018.8
20260503213004 24 267 8.0 14.5 0.00 0.00 0.00 35 1019.1
20260503211504 25 273 6.4 12.9 0.00 0.00 0.00 36 1019.1
20260503210008 25 294 4.8 9.7 0.00 0.00 0.00 35 1019.3
20260503204506 23 273 3.2 12.9 0.00 0.00 0.00 38 1019.5
20260503203005 24 7 3.2 11.3 0.00 0.00 0.00 39 1019.6
20260503201508 23 82 3.2 14.5 0.00 0.00 0.00 38 1019.9
20260503200004 24 302 9.7 14.5 0.00 0.00 0.00 37 1020.2
20260503194506 24 165 3.2 4.8 0.00 0.00 0.00 37 1020.5
20260503193002 23 269 4.8 9.7 0.00 0.00 0.00 37 1020.8
20260503191507 23 155 1.6 11.3 0.00 0.00 0.00 38 1020.9
20260503190017 23 224 1.6 12.9 0.00 0.00 0.00 40 1021.3
20260503184508 23 302 3.2 14.5 0.00 0.00 0.00 37 1021.5
20260503183014 24 270 4.8 14.5 0.00 0.00 0.00 39 1021.6
20260503181508 23 300 3.2 12.9 0.00 0.00 0.00 40 1021.7
20260503180011 23 353 6.4 12.9 0.00 0.00 0.00 38 1021.9
20260503174509 22 253 6.4 14.5 0.00 0.00 0.00 39 1022.0
20260503173007 22 315 8.0 12.9 0.00 0.00 0.00 38 1022.2
20260503171508 22 330 9.7 12.9 0.00 0.00 0.00 38 1022.4
20260503081535 6 109 0.0 0.0 0.00 0.46 0.00 95 1020.5
20260503071520 7 109 0.0 0.0 0.00 0.61 0.00 94 1020.0
20260503054530 7 108 0.0 0.0 0.00 0.74 0.00 93 1020.0
20260503053025 8 109 0.0 0.0 0.00 0.74 0.00 93 1020.1
20260503051513 8 109 0.0 0.0 0.00 0.74 0.00 93 1020.1
20260503050003 8 109 0.0 0.0 0.00 0.76 0.00 92 1020.1
20260503044507 8 109 0.0 0.0 0.00 0.79 0.76 92 1020.2
20260503043008 8 109 0.0 0.0 0.00 0.79 0.76 92 1020.1
20260503041516 8 109 0.0 0.0 0.00 0.81 0.76 92 1020.1
20260503040019 8 109 0.0 0.0 0.00 0.81 0.76 91 1020.1
20260503034520 9 109 0.0 0.0 0.00 0.84 0.76 91 1019.9
20260503033005 9 109 0.0 0.0 0.00 0.89 0.76 90 1019.8
20260503031507 10 109 0.0 0.0 0.00 0.97 0.76 90 1019.7
20260503030014 10 99 0.0 1.6 0.00 1.02 0.76 89 1019.6
20260503024520 10 123 0.0 0.0 0.00 1.04 0.76 88 1019.5
20260503023022 11 123 0.0 0.0 0.00 1.07 0.76 87 1019.2
20260503021503 11 123 0.0 1.6 0.00 1.07 0.76 86 1019.0
20260503020011 11 1 0.0 0.0 0.00 1.07 0.76 84 1018.8
20260503014513 12 353 0.0 0.0 0.00 1.09 0.76 82 1018.8
20260503013020 12 353 0.0 0.0 0.00 1.17 0.76 80 1018.7
20260503011524 13 353 0.0 0.0 0.00 1.22 0.76 76 1018.4
20260503010004 15 353 0.0 0.0 0.00 1.22 0.76 74 1018.1
20260503004522 16 353 0.0 0.0 0.00 1.24 0.76 68 1018.0
20260503003016 18 353 0.0 3.2 0.00 1.27 0.76 53 1017.7
20260503001520 20 334 1.6 8.0 0.00 1.30 0.76 44 1017.5
20260503000023 20 326 1.6 8.0 0.00 1.32 0.76 43 1017.4
20260502234510 21 17 4.8 12.9 0.00 1.37 0.76 40 1017.2
20260502233013 21 311 3.2 14.5 0.00 1.42 0.76 40 1016.9